,,PA_Meas_PMT16A,,PR_Meas_QMR101_102,,RH_Meas_QMH101,,SR_Meas_QMS101,,TA_Meas_QMH101,,GenWind,,GenWind,
time,status,PA,status,PR,status,RH,status,SR,status,TA,status,DirAvg,status,SpdAvg,
2010-01-02, 00:00:04,VALID,916.442,VALID,0,VALID,88.2944,VALID,0,VALID,20.8113,VALID,120,VALID,1.34961,
2010-01-02, 00:01:04,VALID,916.394,VALID,0,VALID,88.0505,VALID,0.107441,VALID,20.8488,VALID,121,VALID,2.40781,
2010-01-02, 00:02:04,VALID,916.386,VALID,0,VALID,87.6617,VALID,0.107441,VALID,20.8683,VALID,105,VALID,2.06523,
2010-01-02, 00:03:04,VALID,916.362,VALID,0,VALID,87.7074,VALID,0,VALID,20.8894,VALID,129,VALID,1.94648,
2010-01-02, 00:04:04,VALID,916.307,VALID,0,VALID,87.433,VALID,0.107441,VALID,20.8878,VALID,133,VALID,2.15977,
2010-01-02, 00:05:04,VALID,916.303,VALID,0,VALID,86.6172,VALID,0.107441,VALID,20.9674,VALID,120,VALID,2.02031,
2010-01-02, 00:06:04,VALID,916.26,VALID,0,VALID,86.602,VALID,0.107441,VALID,21.0454,VALID,113,VALID,2.42422,
2010-01-02, 00:07:04,VALID,916.22,VALID,0,VALID,85.8168,VALID,0.107441,VALID,21.0828,VALID,117,VALID,1.94062,
2010-01-02, 00:08:04,VALID,916.229,VALID,0,VALID,85.6491,VALID,0,VALID,21.1608,VALID,116,VALID,2.12734,
2010-01-02, 00:09:04,VALID,916.231,VALID,0,VALID,85.3213,VALID,0.107441,VALID,21.2193,VALID,128,VALID,2.51523,
2010-01-02, 00:10:04,VALID,916.209,VALID,0,VALID,85.4128,VALID,0.107441,VALID,21.2584,VALID,118,VALID,2.10039,
2010-01-02, 00:11:04,VALID,916.261,VALID,0,VALID,85.3899,VALID,0.107441,VALID,21.2779,VALID,102,VALID,1.58555,
2010-01-02, 00:12:04,VALID,916.243,VALID,0,VALID,85.5576,VALID,0.107441,VALID,21.2389,VALID,121,VALID,2.15,
2010-01-02, 00:13:04,VALID,916.211,VALID,0,VALID,85.3746,VALID,0.107441,VALID,21.2795,VALID,130,VALID,1.8582,
2010-01-02, 00:14:04,VALID,916.195,VALID,0,VALID,85.3899,VALID,0,VALID,21.2795,VALID,132,VALID,2.07227,
2010-01-02, 00:15:04,VALID,916.15,VALID,0,VALID,85.5271,VALID,0.107441,VALID,21.2584,VALID,128,VALID,1.84375,
2010-01-02, 00:16:04,VALID,916.165,VALID,0,VALID,85.5347,VALID,0.107441,VALID,21.2584,VALID,125,VALID,1.5793,
2010-01-02, 00:17:04,VALID,916.148,VALID,0,VALID,85.6491,VALID,0.107441,VALID,21.2389,VALID,139,VALID,1.32656,
2010-01-02, 00:18:04,VALID,916.133,VALID,0,VALID,85.306,VALID,0.107441,VALID,21.2584,VALID,156,VALID,3.22031,
2010-01-02, 00:19:04,VALID,916.108,VALID,0,VALID,85.5271,VALID,0.107441,VALID,21.2584,VALID,122,VALID,1.43438,
2010-01-02, 00:20:04,VALID,916.103,VALID,0,VALID,85.55,VALID,0.107441,VALID,21.2389,VALID,153,VALID,2.07148,
2010-01-02, 00:21:04,VALID,916.077,VALID,0,VALID,85.9235,VALID,0.107441,VALID,21.2389,VALID,125,VALID,0.993359,
2010-01-02, 00:22:04,VALID,916.09,VALID,0,VALID,86.0531,VALID,0,VALID,21.1803,VALID,127,VALID,1.64961,
2010-01-02, 00:23:04,VALID,916.05,VALID,0,VALID,85.9235,VALID,0.107441,VALID,21.1608,VALID,134,VALID,1.95352,
2010-01-02, 00:24:04,VALID,916.057,VALID,0,VALID,86.2285,VALID,0.107441,VALID,21.1413,VALID,143,VALID,1.38984,
2010-01-02, 00:25:04,VALID,916.013,VALID,0,VALID,86.3581,VALID,0.107441,VALID,21.1023,VALID,128,VALID,1.7082,
2010-01-02, 00:26:04,VALID,916.05,VALID,0,VALID,86.3276,VALID,0.107441,VALID,21.1023,VALID,123,VALID,1.77109,
2010-01-02, 00:27:04,VALID,916.043,VALID,0,VALID,86.2589,VALID,0.107441,VALID,21.1023,VALID,140,VALID,2.26992,
2010-01-02, 00:28:04,VALID,916.002,VALID,0,VALID,86.0912,VALID,0.107441,VALID,21.1234,VALID,123,VALID,2.28477,
2010-01-02, 00:29:04,VALID,916.001,VALID,0,VALID,86.2056,VALID,0,VALID,21.1218,VALID,131,VALID,1.38008,
2010-01-02, 00:30:04,VALID,916.027,VALID,0,VALID,86.5486,VALID,0,VALID,21.1039,VALID,123,VALID,1.72227,
2010-01-02, 00:31:04,VALID,915.963,VALID,0,VALID,86.3276,VALID,0,VALID,21.1234,VALID,134,VALID,2.53086,
2010-01-02, 00:32:04,VALID,915.972,VALID,0,VALID,86.4953,VALID,0,VALID,21.1023,VALID,110,VALID,1.47031,
2010-01-02, 00:33:04,VALID,915.986,VALID,0,VALID,86.6249,VALID,0,VALID,21.0844,VALID,137,VALID,1.47344,
2010-01-02, 00:34:04,VALID,915.976,VALID,0,VALID,86.4038,VALID,0,VALID,21.1023,VALID,141,VALID,1.61133,
2010-01-02, 00:35:04,VALID,915.988,VALID,0,VALID,86.2437,VALID,0,VALID,21.1413,VALID,133,VALID,1.93594,
2010-01-02, 00:36:04,VALID,915.996,VALID,0,VALID,85.9921,VALID,0.107441,VALID,21.1413,VALID,138,VALID,1.9832,
2010-01-02, 00:37:04,VALID,915.985,VALID,0,VALID,85.7634,VALID,0.107441,VALID,21.1803,VALID,139,VALID,2.57578,
2010-01-02, 00:38:04,VALID,916.002,VALID,0,VALID,85.7939,VALID,0.107441,VALID,21.1803,VALID,151,VALID,1.49922,
2010-01-02, 00:39:04,VALID,916.011,VALID,0,VALID,85.7482,VALID,0,VALID,21.2015,VALID,127,VALID,2.4832,
2010-01-02, 00:40:04,VALID,916.028,VALID,0,VALID,85.7101,VALID,0.107441,VALID,21.221,VALID,141,VALID,1.82109,
2010-01-02, 00:41:04,VALID,916.021,VALID,0,VALID,85.4661,VALID,0.107441,VALID,21.2193,VALID,135,VALID,2.41992,
2010-01-02, 00:42:04,VALID,915.995,VALID,0,VALID,85.2984,VALID,0.107441,VALID,21.2389,VALID,136,VALID,2.20547,
2010-01-02, 00:43:04,VALID,916.022,VALID,0,VALID,85.4356,VALID,0.107441,VALID,21.2584,VALID,123,VALID,2.60859,
2010-01-02, 00:44:04,VALID,915.984,VALID,0,VALID,85.2679,VALID,0,VALID,21.2584,VALID,137,VALID,1.55469,
2010-01-02, 00:45:04,VALID,916.021,VALID,0,VALID,84.9325,VALID,0.107441,VALID,21.2584,VALID,136,VALID,2.97852,
2010-01-02, 00:46:04,VALID,915.997,VALID,0,VALID,84.7953,VALID,0.107441,VALID,21.2779,VALID,135,VALID,3.16875,
2010-01-02, 00:47:04,VALID,916.003,VALID,0,VALID,85.0316,VALID,0,VALID,21.2974,VALID,128,VALID,2.27734,
2010-01-02, 00:48:04,VALID,915.955,VALID,0,VALID,84.9172,VALID,0,VALID,21.2584,VALID,123,VALID,2.52813,
2010-01-02, 00:49:04,VALID,915.928,VALID,0,VALID,85.367,VALID,0.107441,VALID,21.2584,VALID,109,VALID,2.10859,
2010-01-02, 00:50:04,VALID,915.887,VALID,0,VALID,85.0011,VALID,0.107441,VALID,21.2584,VALID,112,VALID,1.2875,
2010-01-02, 00:51:04,VALID,915.916,VALID,0,VALID,85.1841,VALID,0.107441,VALID,21.2584,VALID,124,VALID,1.22383,
2010-01-02, 00:52:04,VALID,915.849,VALID,0,VALID,85.024,VALID,0.107441,VALID,21.2584,VALID,130,VALID,2.18711,
2010-01-02, 00:53:04,VALID,915.891,VALID,0,VALID,85.1307,VALID,0.107441,VALID,21.2795,VALID,124,VALID,1.36406,
2010-01-02, 00:54:04,VALID,915.885,VALID,0,VALID,84.8791,VALID,0.107441,VALID,21.2974,VALID,149,VALID,1.65273,
2010-01-02, 00:55:04,VALID,915.857,VALID,0,VALID,84.9096,VALID,0,VALID,21.299,VALID,136,VALID,2.0832,
2010-01-02, 00:56:04,VALID,915.858,VALID,0,VALID,84.6885,VALID,0.107441,VALID,21.299,VALID,137,VALID,3.26289,
2010-01-02, 00:57:04,VALID,915.834,VALID,0,VALID,85.0087,VALID,0.107441,VALID,21.3169,VALID,105,VALID,1.95352,
2010-01-02, 00:58:04,VALID,915.849,VALID,0,VALID,85.1383,VALID,0.107441,VALID,21.2779,VALID,122,VALID,2.05156,
2010-01-02, 00:59:04,VALID,915.846,VALID,0,VALID,85.5271,VALID,0.107441,VALID,21.2193,VALID,136,VALID,2.64492,
2010-01-02, 01:00:04,VALID,915.804,VALID,0,VALID,85.6948,VALID,0.107441,VALID,21.1998,VALID,167,VALID,1.66016,
2010-01-02, 01:01:04,VALID,915.821,VALID,0,VALID,85.8015,VALID,0,VALID,21.2015,VALID,146,VALID,1.40391,
2010-01-02, 01:02:04,VALID,915.8,VALID,0,VALID,85.8854,VALID,0,VALID,21.2015,VALID,120,VALID,1.83359,
2010-01-02, 01:03:04,VALID,915.828,VALID,0,VALID,85.8778,VALID,0.107441,VALID,21.2015,VALID,149,VALID,1.74102,
2010-01-02, 01:04:04,VALID,915.818,VALID,0,VALID,85.7787,VALID,0,VALID,21.2405,VALID,129,VALID,2.53594,
2010-01-02, 01:05:04,VALID,915.836,VALID,0,VALID,85.5652,VALID,0,VALID,21.2405,VALID,133,VALID,1.98164,
2010-01-02, 01:06:04,VALID,915.865,VALID,0,VALID,85.8625,VALID,0,VALID,21.2405,VALID,110,VALID,1.63555,
2010-01-02, 01:07:04,VALID,915.828,VALID,0,VALID,85.9388,VALID,0,VALID,21.1819,VALID,144,VALID,1.8668,
2010-01-02, 01:08:04,VALID,915.828,VALID,0,VALID,86.3047,VALID,0,VALID,21.1429,VALID,154,VALID,1.57813,
2010-01-02, 01:09:04,VALID,915.861,VALID,0,VALID,85.672,VALID,0,VALID,21.1429,VALID,137,VALID,1.98906,
2010-01-02, 01:10:04,VALID,915.852,VALID,0,VALID,86.0989,VALID,0,VALID,21.1836,VALID,139,VALID,1.29766,
2010-01-02, 01:11:04,VALID,915.857,VALID,0,VALID,86.3199,VALID,0,VALID,21.1429,VALID,144,VALID,1.42773,
2010-01-02, 01:12:04,VALID,915.799,VALID,0,VALID,86.5791,VALID,0,VALID,21.0844,VALID,139,VALID,1.4918,
2010-01-02, 01:13:04,VALID,915.796,VALID,0,VALID,86.8155,VALID,0,VALID,21.0649,VALID,131,VALID,1.45703,
2010-01-02, 01:14:04,VALID,915.759,VALID,0,VALID,86.5791,VALID,0,VALID,21.1039,VALID,142,VALID,1.87148,
2010-01-02, 01:15:04,VALID,915.786,VALID,0,VALID,86.5258,VALID,0,VALID,21.1039,VALID,133,VALID,1.54297,
2010-01-02, 01:16:04,VALID,915.778,VALID,0,VALID,86.8002,VALID,0,VALID,21.0844,VALID,118,VALID,2.10195,
2010-01-02, 01:17:04,VALID,915.743,VALID,0,VALID,87.189,VALID,0,VALID,21.0259,VALID,130,VALID,2.06719,
2010-01-02, 01:18:04,VALID,915.697,VALID,0,VALID,87.3643,VALID,0,VALID,20.9885,VALID,134,VALID,1.69766,
2010-01-02, 01:19:04,VALID,915.692,VALID,0,VALID,87.7074,VALID,0,VALID,20.9089,VALID,140,VALID,1.71406,
2010-01-02, 01:20:04,VALID,915.688,VALID,0,VALID,87.8065,VALID,0,VALID,20.9089,VALID,131,VALID,2.01758,
2010-01-02, 01:21:04,VALID,915.678,VALID,0,VALID,87.898,VALID,0,VALID,20.8894,VALID,136,VALID,1.56797,
2010-01-02, 01:22:04,VALID,915.66,VALID,0,VALID,88.0047,VALID,0,VALID,20.8894,VALID,128,VALID,2.16875,
2010-01-02, 01:23:04,VALID,915.631,VALID,0,VALID,88.1343,VALID,0,VALID,20.8699,VALID,122,VALID,2.41328,
2010-01-02, 01:24:04,VALID,915.65,VALID,0,VALID,88.0886,VALID,0,VALID,20.8504,VALID,123,VALID,2.20742,
2010-01-02, 01:25:04,VALID,915.652,VALID,0,VALID,88.2182,VALID,0,VALID,20.8504,VALID,112,VALID,1.60703,
2010-01-02, 01:26:04,VALID,915.618,VALID,0,VALID,88.4392,VALID,0,VALID,20.8519,VALID,101,VALID,1.63203,
2010-01-02, 01:27:04,VALID,915.652,VALID,0,VALID,88.668,VALID,0,VALID,20.7918,VALID,121,VALID,1.95977,
2010-01-02, 01:28:04,VALID,915.67,VALID,0,VALID,88.9348,VALID,0,VALID,20.7123,VALID,120,VALID,1.75352,
2010-01-02, 01:29:04,VALID,915.632,VALID,0,VALID,89.0872,VALID,0,VALID,20.6748,VALID,106,VALID,1.70039,
2010-01-02, 01:30:04,VALID,915.63,VALID,0,VALID,89.1711,VALID,0,VALID,20.6553,VALID,126,VALID,1.84453,
2010-01-02, 01:31:04,VALID,915.586,VALID,0,VALID,89.1863,VALID,0.107441,VALID,20.6733,VALID,148,VALID,1.46953,
2010-01-02, 01:32:04,VALID,915.555,VALID,0,VALID,89.0644,VALID,0,VALID,20.6733,VALID,125,VALID,1.80703,
2010-01-02, 01:33:04,VALID,915.58,VALID,0,VALID,88.7899,VALID,0.107441,VALID,20.7123,VALID,133,VALID,2.62227,
2010-01-02, 01:34:04,VALID,915.569,VALID,0,VALID,88.5917,VALID,0.107441,VALID,20.7513,VALID,135,VALID,2.50352,
2010-01-02, 01:35:04,VALID,915.553,VALID,0,VALID,88.4545,VALID,0.107441,VALID,20.7903,VALID,133,VALID,2.12578,
2010-01-02, 01:36:04,VALID,915.519,VALID,0,VALID,88.4469,VALID,0.107441,VALID,20.7708,VALID,135,VALID,2.26289,
2010-01-02, 01:37:04,VALID,915.535,VALID,0,VALID,88.4621,VALID,0.107441,VALID,20.7708,VALID,126,VALID,2.23828,
2010-01-02, 01:38:04,VALID,915.523,VALID,0,VALID,88.7213,VALID,0.107441,VALID,20.7513,VALID,128,VALID,1.57031,
2010-01-02, 01:39:04,VALID,915.514,VALID,0,VALID,88.7594,VALID,0.107441,VALID,20.7123,VALID,125,VALID,2.33867,
2010-01-02, 01:40:04,VALID,915.476,VALID,0,VALID,88.7442,VALID,0.107441,VALID,20.7123,VALID,134,VALID,1.64102,
2010-01-02, 01:41:04,VALID,915.497,VALID,0,VALID,88.7747,VALID,0.107441,VALID,20.7123,VALID,153,VALID,1.2832,
2010-01-02, 01:42:04,VALID,915.541,VALID,0,VALID,88.4621,VALID,0.107441,VALID,20.7318,VALID,144,VALID,2.56758,
2010-01-02, 01:43:04,VALID,915.521,VALID,0,VALID,88.302,VALID,0.107441,VALID,20.8309,VALID,112,VALID,2.15508,
2010-01-02, 01:44:04,VALID,915.505,VALID,0,VALID,88.2487,VALID,0.107441,VALID,20.8293,VALID,101,VALID,2.20898,
2010-01-02, 01:45:04,VALID,915.526,VALID,0,VALID,87.898,VALID,0.107441,VALID,20.8894,VALID,129,VALID,1.66055,
2010-01-02, 01:46:04,VALID,915.464,VALID,0,VALID,87.6693,VALID,0,VALID,20.9105,VALID,120,VALID,2.13086,
2010-01-02, 01:47:04,VALID,915.5,VALID,0,VALID,87.8065,VALID,0,VALID,20.8894,VALID,134,VALID,1.59219,
2010-01-02, 01:48:04,VALID,915.458,VALID,0,VALID,87.8827,VALID,0,VALID,20.9105,VALID,118,VALID,1.70742,
2010-01-02, 01:49:04,VALID,915.463,VALID,0,VALID,87.1738,VALID,0,VALID,20.9495,VALID,132,VALID,2.71406,
2010-01-02, 01:50:04,VALID,915.461,VALID,0,VALID,86.8078,VALID,0,VALID,21.0259,VALID,134,VALID,1.86992,
2010-01-02, 01:51:04,VALID,915.437,VALID,0,VALID,86.663,VALID,0,VALID,21.086,VALID,133,VALID,1.84141,
2010-01-02, 01:52:04,VALID,915.466,VALID,0,VALID,86.8764,VALID,0,VALID,21.0454,VALID,135,VALID,2.06602,
2010-01-02, 01:53:04,VALID,915.453,VALID,0,VALID,86.8764,VALID,0,VALID,21.0649,VALID,116,VALID,1.09844,
2010-01-02, 01:54:04,VALID,915.427,VALID,0,VALID,86.8383,VALID,0,VALID,21.0454,VALID,129,VALID,2.08711,
2010-01-02, 01:55:04,VALID,915.447,VALID,0,VALID,87.1585,VALID,0,VALID,21.0275,VALID,141,VALID,1.81797,
2010-01-02, 01:56:04,VALID,915.426,VALID,0,VALID,87.1585,VALID,0,VALID,20.9869,VALID,136,VALID,2.3875,
2010-01-02, 01:57:04,VALID,915.461,VALID,0,VALID,87.2881,VALID,0,VALID,21.008,VALID,140,VALID,1.78711,
2010-01-02, 01:58:04,VALID,915.457,VALID,0,VALID,87.128,VALID,0,VALID,21.0064,VALID,145,VALID,1.80469,
2010-01-02, 01:59:04,VALID,915.449,VALID,0,VALID,87.2195,VALID,0,VALID,21.0064,VALID,135,VALID,2.28945,
2010-01-02, 02:00:04,VALID,915.441,VALID,0,VALID,87.2195,VALID,0,VALID,21.008,VALID,130,VALID,1.88555,
2010-01-02, 02:01:04,VALID,915.488,VALID,0,VALID,87.0747,VALID,0.107441,VALID,21.0454,VALID,150,VALID,1.50156,
2010-01-02, 02:02:04,VALID,915.46,VALID,0,VALID,87.0899,VALID,0.107441,VALID,21.0243,VALID,132,VALID,1.95898,
2010-01-02, 02:03:04,VALID,915.442,VALID,0,VALID,87.189,VALID,0,VALID,21.0048,VALID,144,VALID,2.26602,
2010-01-02, 02:04:04,VALID,915.481,VALID,0,VALID,86.9984,VALID,0,VALID,21.0259,VALID,142,VALID,2.18633,
2010-01-02, 02:05:04,VALID,915.446,VALID,0,VALID,86.6172,VALID,0.107441,VALID,21.0454,VALID,175,VALID,1.89922,
2010-01-02, 02:06:04,VALID,915.48,VALID,0,VALID,86.7468,VALID,0.107441,VALID,21.1023,VALID,121,VALID,1.58477,
2010-01-02, 02:07:04,VALID,915.496,VALID,0,VALID,86.7545,VALID,0,VALID,21.0828,VALID,149,VALID,1.58086,
2010-01-02, 02:08:04,VALID,915.454,VALID,0,VALID,86.9069,VALID,0,VALID,21.0633,VALID,153,VALID,1.89609,
2010-01-02, 02:09:04,VALID,915.428,VALID,0,VALID,86.8536,VALID,0.107441,VALID,21.0649,VALID,154,VALID,1.91016,
2010-01-02, 02:10:04,VALID,915.436,VALID,0,VALID,86.9298,VALID,0.107441,VALID,21.0649,VALID,145,VALID,1.6957,
2010-01-02, 02:11:04,VALID,915.422,VALID,0,VALID,87.128,VALID,0.107441,VALID,21.0438,VALID,139,VALID,1.61875,
2010-01-02, 02:12:04,VALID,915.392,VALID,0,VALID,86.8002,VALID,0,VALID,21.0438,VALID,173,VALID,2.16289,
2010-01-02, 02:13:04,VALID,915.382,VALID,0,VALID,86.8688,VALID,0.107441,VALID,21.0844,VALID,181,VALID,1.40391,
2010-01-02, 02:14:04,VALID,915.376,VALID,0,VALID,87.0823,VALID,0.107441,VALID,21.0633,VALID,181,VALID,0.721094,
2010-01-02, 02:15:04,VALID,915.368,VALID,0,VALID,87.0289,VALID,0.107441,VALID,21.0438,VALID,181,VALID,1.30547,
2010-01-02, 02:16:04,VALID,915.336,VALID,0,VALID,87.2271,VALID,0,VALID,21.0064,VALID,181,VALID,1.3375,
2010-01-02, 02:17:04,VALID,915.321,VALID,0,VALID,87.1738,VALID,0,VALID,21.0064,VALID,118,VALID,0.929297,
2010-01-02, 02:18:04,VALID,915.318,VALID,0,VALID,87.067,VALID,0,VALID,21.0064,VALID,148,VALID,0.916016,
2010-01-02, 02:19:04,VALID,915.296,VALID,0,VALID,86.9984,VALID,0,VALID,21.0259,VALID,132,VALID,1.44453,
2010-01-02, 02:20:04,VALID,915.322,VALID,0,VALID,87.0975,VALID,0,VALID,21.0259,VALID,169,VALID,1.07578,
2010-01-02, 02:21:04,VALID,915.245,VALID,0,VALID,87.1509,VALID,0,VALID,20.9869,VALID,175,VALID,1.15117,
2010-01-02, 02:22:04,VALID,915.275,VALID,0,VALID,87.3948,VALID,0,VALID,20.9674,VALID,198,VALID,0.68125,
2010-01-02, 02:23:04,VALID,915.253,VALID,0,VALID,87.4025,VALID,0,VALID,20.9479,VALID,164,VALID,0.939453,
2010-01-02, 02:24:04,VALID,915.229,VALID,0,VALID,87.5244,VALID,0,VALID,20.9495,VALID,170,VALID,1.1543,
2010-01-02, 02:25:04,VALID,915.215,VALID,0,VALID,87.837,VALID,0,VALID,20.9089,VALID,170,VALID,0.548047,
2010-01-02, 02:26:04,VALID,915.181,VALID,0,VALID,87.7303,VALID,0,VALID,20.8699,VALID,180,VALID,1.21836,
2010-01-02, 02:27:04,VALID,915.161,VALID,0,VALID,87.7608,VALID,0,VALID,20.8504,VALID,135,VALID,1.96563,
2010-01-02, 02:28:04,VALID,915.164,VALID,0,VALID,87.9209,VALID,0,VALID,20.8504,VALID,151,VALID,1.18555,
2010-01-02, 02:29:04,VALID,915.133,VALID,0,VALID,88.1801,VALID,0,VALID,20.8113,VALID,134,VALID,1.39102,
2010-01-02, 02:30:04,VALID,915.098,VALID,0,VALID,88.2334,VALID,0,VALID,20.7918,VALID,124,VALID,1.10859,
2010-01-02, 02:31:04,VALID,915.095,VALID,0,VALID,88.3783,VALID,0,VALID,20.7934,VALID,142,VALID,2.17227,
2010-01-02, 02:32:04,VALID,915.088,VALID,0,VALID,88.3478,VALID,0,VALID,20.7723,VALID,148,VALID,2.05312,
2010-01-02, 02:33:04,VALID,915.068,VALID,0,VALID,88.241,VALID,0,VALID,20.7723,VALID,148,VALID,1.8543,
2010-01-02, 02:34:04,VALID,915.043,VALID,0,VALID,88.2334,VALID,0,VALID,20.8129,VALID,137,VALID,1.81836,
2010-01-02, 02:35:04,VALID,915.017,VALID,0,VALID,88.2868,VALID,0,VALID,20.7934,VALID,126,VALID,0.866797,
2010-01-02, 02:36:04,VALID,915.039,VALID,0,VALID,88.3173,VALID,0,VALID,20.7739,VALID,139,VALID,1.32031,
2010-01-02, 02:37:04,VALID,915.024,VALID,0,VALID,88.4697,VALID,0,VALID,20.7739,VALID,127,VALID,1.24805,
2010-01-02, 02:38:04,VALID,914.996,VALID,0,VALID,88.3783,VALID,0,VALID,20.7739,VALID,150,VALID,1.76914,
2010-01-02, 02:39:04,VALID,914.957,VALID,0,VALID,88.363,VALID,0,VALID,20.7739,VALID,169,VALID,1.50547,
2010-01-02, 02:40:04,VALID,914.943,VALID,0,VALID,88.5002,VALID,0,VALID,20.7739,VALID,154,VALID,1.32695,
2010-01-02, 02:41:04,VALID,914.948,VALID,0,VALID,88.4774,VALID,0,VALID,20.7333,VALID,159,VALID,1.81914,
2010-01-02, 02:42:04,VALID,914.953,VALID,0,VALID,88.5079,VALID,0,VALID,20.7739,VALID,146,VALID,1.84531,
2010-01-02, 02:43:04,VALID,914.89,VALID,0,VALID,88.5765,VALID,0,VALID,20.7739,VALID,155,VALID,1.16953,
2010-01-02, 02:44:04,VALID,914.878,VALID,0,VALID,88.7518,VALID,0,VALID,20.7349,VALID,169,VALID,0.974609,
2010-01-02, 02:45:04,VALID,914.896,VALID,0,VALID,88.889,VALID,0,VALID,20.6943,VALID,165,VALID,1.22422,
2010-01-02, 02:46:04,VALID,914.907,VALID,0,VALID,88.8585,VALID,0.107441,VALID,20.6943,VALID,154,VALID,1.97109,
2010-01-02, 02:47:04,VALID,914.909,VALID,0,VALID,88.7975,VALID,0.107441,VALID,20.7138,VALID,157,VALID,1.68633,
2010-01-02, 02:48:04,VALID,914.895,VALID,0,VALID,88.3173,VALID,0,VALID,20.7333,VALID,143,VALID,1.76875,
2010-01-02, 02:49:04,VALID,914.883,VALID,0,VALID,88.424,VALID,0,VALID,20.7723,VALID,161,VALID,2.28672,
2010-01-02, 02:50:04,VALID,914.908,VALID,0,VALID,88.546,VALID,0,VALID,20.7723,VALID,159,VALID,1.02617,
2010-01-02, 02:51:04,VALID,914.878,VALID,0,VALID,88.7518,VALID,0,VALID,20.7138,VALID,148,VALID,1.29023,
2010-01-02, 02:52:04,VALID,914.888,VALID,0,VALID,88.8433,VALID,0,VALID,20.7138,VALID,152,VALID,1.91211,
2010-01-02, 02:53:04,VALID,914.895,VALID,0,VALID,88.8052,VALID,0,VALID,20.7349,VALID,184,VALID,1.02656,
2010-01-02, 02:54:04,VALID,914.894,VALID,0,VALID,88.828,VALID,0,VALID,20.7138,VALID,130,VALID,1.12148,
2010-01-02, 02:55:04,VALID,914.916,VALID,0,VALID,89.0263,VALID,0,VALID,20.7154,VALID,168,VALID,1.24609,
2010-01-02, 02:56:04,VALID,914.906,VALID,0,VALID,88.8052,VALID,0,VALID,20.7544,VALID,142,VALID,2.69297,
2010-01-02, 02:57:04,VALID,914.898,VALID,0,VALID,88.9119,VALID,0,VALID,20.7349,VALID,134,VALID,1.2293,
2010-01-02, 02:58:04,VALID,914.865,VALID,0,VALID,88.889,VALID,0,VALID,20.7349,VALID,137,VALID,2.35938,
2010-01-02, 02:59:04,VALID,914.886,VALID,0,VALID,88.7594,VALID,0,VALID,20.7544,VALID,138,VALID,2.84766,
2010-01-02, 03:00:04,VALID,914.855,VALID,0,VALID,88.8357,VALID,0,VALID,20.7528,VALID,153,VALID,2.4043,
2010-01-02, 03:01:04,VALID,914.825,VALID,0,VALID,88.7899,VALID,0,VALID,20.7318,VALID,139,VALID,1.85469,
2010-01-02, 03:02:04,VALID,914.828,VALID,0,VALID,88.9653,VALID,0,VALID,20.7318,VALID,133,VALID,1.42266,
2010-01-02, 03:03:04,VALID,914.803,VALID,0,VALID,88.9348,VALID,0,VALID,20.7528,VALID,137,VALID,1.5582,
2010-01-02, 03:04:04,VALID,914.781,VALID,0,VALID,89.2016,VALID,0,VALID,20.7333,VALID,112,VALID,2.45469,
2010-01-02, 03:05:04,VALID,914.762,VALID,0,VALID,89.2778,VALID,0,VALID,20.6733,VALID,101,VALID,1.7625,
2010-01-02, 03:06:04,VALID,914.803,VALID,0,VALID,89.4608,VALID,0.107441,VALID,20.6748,VALID,138,VALID,1.05742,
2010-01-02, 03:07:04,VALID,914.759,VALID,0,VALID,89.4684,VALID,0,VALID,20.6358,VALID,131,VALID,2.11133,
2010-01-02, 03:08:04,VALID,914.719,VALID,0,VALID,89.4379,VALID,0,VALID,20.6553,VALID,130,VALID,1.72344,
2010-01-02, 03:09:04,VALID,914.705,VALID,0,VALID,89.5218,VALID,0,VALID,20.6147,VALID,132,VALID,0.751953,
2010-01-02, 03:10:04,VALID,914.725,VALID,0,VALID,89.3388,VALID,0,VALID,20.6163,VALID,161,VALID,1.05664,
2010-01-02, 03:11:04,VALID,914.701,VALID,0,VALID,89.133,VALID,0,VALID,20.6537,VALID,149,VALID,1.3957,
2010-01-02, 03:12:04,VALID,914.715,VALID,0,VALID,89.0339,VALID,0,VALID,20.6943,VALID,201,VALID,1.13125,
2010-01-02, 03:13:04,VALID,914.676,VALID,0,VALID,88.8509,VALID,0,VALID,20.6928,VALID,166,VALID,1.99414,
2010-01-02, 03:14:04,VALID,914.668,VALID,0,VALID,89.0949,VALID,0,VALID,20.6943,VALID,183,VALID,1.22305,
2010-01-02, 03:15:04,VALID,914.632,VALID,0,VALID,89.1177,VALID,0,VALID,20.6733,VALID,168,VALID,1.89727,
2010-01-02, 03:16:04,VALID,914.609,VALID,0,VALID,88.6146,VALID,0,VALID,20.6943,VALID,177,VALID,2.2543,
2010-01-02, 03:17:04,VALID,914.675,VALID,0,VALID,88.3935,VALID,0,VALID,20.7723,VALID,160,VALID,1.95117,
2010-01-02, 03:18:04,VALID,914.691,VALID,0,VALID,88.3706,VALID,0,VALID,20.7934,VALID,164,VALID,1.125,
2010-01-02, 03:19:04,VALID,914.647,VALID,0,VALID,88.5079,VALID,0,VALID,20.8129,VALID,141,VALID,1.32344,
2010-01-02, 03:20:04,VALID,914.652,VALID,0,VALID,88.5993,VALID,0,VALID,20.7934,VALID,139,VALID,1.46602,
2010-01-02, 03:21:04,VALID,914.658,VALID,0,VALID,88.4164,VALID,0,VALID,20.7528,VALID,155,VALID,1.99727,
2010-01-02, 03:22:04,VALID,914.692,VALID,0,VALID,88.424,VALID,0,VALID,20.7918,VALID,136,VALID,1.93281,
2010-01-02, 03:23:04,VALID,914.658,VALID,0,VALID,88.1038,VALID,0,VALID,20.8113,VALID,134,VALID,2.05977,
2010-01-02, 03:24:04,VALID,914.639,VALID,0,VALID,87.5397,VALID,0,VALID,20.8699,VALID,165,VALID,2.32773,
2010-01-02, 03:25:04,VALID,914.661,VALID,0,VALID,87.4406,VALID,0,VALID,20.9105,VALID,144,VALID,1.88906,
2010-01-02, 03:26:04,VALID,914.667,VALID,0,VALID,87.0747,VALID,0,VALID,20.9284,VALID,117,VALID,1.62539,
2010-01-02, 03:27:04,VALID,914.664,VALID,0,VALID,86.9298,VALID,0,VALID,20.9479,VALID,85,VALID,1.22969,
2010-01-02, 03:28:04,VALID,914.675,VALID,0,VALID,87.128,VALID,0,VALID,20.9479,VALID,107,VALID,1.04922,
2010-01-02, 03:29:04,VALID,914.663,VALID,0,VALID,86.9603,VALID,0,VALID,20.9495,VALID,123,VALID,1.46133,
2010-01-02, 03:30:04,VALID,914.652,VALID,0,VALID,86.0989,VALID,0,VALID,21.0844,VALID,111,VALID,2.38555,
2010-01-02, 03:31:04,VALID,914.612,VALID,0,VALID,85.8092,VALID,0,VALID,21.1234,VALID,144,VALID,1.56641,
2010-01-02, 03:32:04,VALID,914.609,VALID,0,VALID,85.8549,VALID,0,VALID,21.125,VALID,146,VALID,1.48398,
2010-01-02, 03:33:04,VALID,914.626,VALID,0,VALID,85.954,VALID,0,VALID,21.1055,VALID,131,VALID,1.27969,
2010-01-02, 03:34:04,VALID,914.596,VALID,0,VALID,85.7406,VALID,0,VALID,21.0649,VALID,141,VALID,2.66914,
2010-01-02, 03:35:04,VALID,914.627,VALID,0,VALID,85.5957,VALID,0,VALID,21.1429,VALID,143,VALID,1.60977,
2010-01-02, 03:36:04,VALID,914.599,VALID,0,VALID,85.7101,VALID,0,VALID,21.1039,VALID,121,VALID,2.60547,
2010-01-02, 03:37:04,VALID,914.601,VALID,0,VALID,85.9616,VALID,0,VALID,21.1039,VALID,129,VALID,1.48203,
2010-01-02, 03:38:04,VALID,914.574,VALID,0,VALID,85.9769,VALID,0,VALID,21.1055,VALID,131,VALID,1.96367,
2010-01-02, 03:39:04,VALID,914.573,VALID,0,VALID,86.2056,VALID,0,VALID,21.0649,VALID,118,VALID,0.967578,
2010-01-02, 03:40:04,VALID,914.593,VALID,0,VALID,86.4495,VALID,0,VALID,21.0454,VALID,125,VALID,1.65781,
2010-01-02, 03:41:04,VALID,914.542,VALID,0,VALID,86.6249,VALID,0,VALID,21.0275,VALID,151,VALID,1.55859,